Weather History for Lawton, OK

Change the Weather History Date:

Wednesday, November 7, 2012

  Actual Average Record
Temperature  
Mean Temperature 54 °F -  
Max Temperature 73 °F 65 °F 86 °F (1963)
Min Temperature 36 °F 40 °F 25 °F (1959)
Degree Days  
Heating Degree Days 10    
Growing Degree Days 4 (Base 50)    
Moisture  
Dew Point 35 °F    
Average Humidity 51    
Maximum Humidity 93    
Minimum Humidity 25    
Precipitation  
Precipitation 0.00 in - - ()
Sea Level Pressure  
Sea Level Pressure 30.11 in    
Wind  
Wind Speed 4 mph (SE)    
Max Wind Speed 12 mph    
Max Gust Speed 16 mph    
Visibility 10 miles    
Events      
Averages and records for this station are not official NWS values.
T = Trace of Precipitation, MM = Missing Value Source: NWS Daily Summary

Daily Weather History Graph

Daily Weather History Graph

Search for Another Location

Airport:

Trip Planner

Search our weather history database for the weather conditions in past years. The results will help you decide how hot, cold, wet, or windy it might be!

Date:

Astronomy

Nov. 07, 2012 Rise Set
Actual Time 7:00 AM CST 5:34 PM CST
Civil Twilight 6:33 AM CST 6:00 PM CST
Nautical Twilight 6:03 AM CST 6:30 PM CST
Astronomical Twilight 5:34 AM CST 7:00 PM CST
Moon 12:12 AM CST (11/7) 1:28 PM CST (11/7)
Length of Visible Light 11h 26m
Length of Day
10h 34m
Last Quarter, 43% of the Moon is Illuminated
Nov 7
Last Quarter
Nov 13
New
Nov 20
First Quarter
Nov 28
Full
Dec 6
Last Quarter

Hourly Weather History & Observations

Time (CST) Temp. Windchill Dew Point Humidity Pressure Visibility Wind Dir Wind Speed Gust Speed Precip Events Conditions
12:53 AM 43.0 °F 40.3 °F 36.0 °F 76% 30.16 in 10.0 mi WNW 4.6 mph - N/A   Clear
1:53 AM 42.1 °F - 35.1 °F 76% 30.16 in 10.0 mi Calm Calm - N/A   Clear
2:53 AM 41.0 °F 39.0 °F 36.0 °F 82% 30.17 in 10.0 mi NW 3.5 mph - N/A   Clear
3:53 AM 41.0 °F - 35.1 °F 79% 30.15 in 10.0 mi Calm Calm - N/A   Clear
4:53 AM 37.9 °F - 35.1 °F 89% 30.16 in 10.0 mi Calm Calm - N/A   Clear
6:53 AM 36.0 °F - 34.0 °F 93% 30.19 in 10.0 mi Calm Calm - N/A   Clear
7:53 AM 41.0 °F - 36.0 °F 82% 30.21 in 10.0 mi Calm Calm - N/A   Clear
8:53 AM 55.9 °F - 39.9 °F 55% 30.22 in 10.0 mi Calm Calm - N/A   Clear
9:53 AM 61.0 °F - 37.9 °F 42% 30.21 in 10.0 mi ESE 3.5 mph - N/A   Clear
10:53 AM 64.9 °F - 32.0 °F 29% 30.19 in 10.0 mi Variable 4.6 mph - N/A   Clear
11:53 AM 68.0 °F - 32.0 °F 26% 30.16 in 10.0 mi South 10.4 mph - N/A   Clear
12:53 PM 69.1 °F - 33.1 °F 26% 30.12 in 10.0 mi SSE 11.5 mph - N/A   Clear
1:53 PM 71.1 °F - 33.1 °F 25% 30.08 in 10.0 mi SSE 11.5 mph 16.1 mph N/A   Clear
2:53 PM 72.0 °F - 34.0 °F 25% 30.07 in 10.0 mi SSE 9.2 mph - N/A   Clear
3:53 PM 73.0 °F - 35.1 °F 25% 30.05 in 10.0 mi SSE 9.2 mph - N/A   Clear
4:53 PM 71.1 °F - 35.1 °F 27% 30.05 in 10.0 mi SE 9.2 mph - N/A   Clear
5:53 PM 64.0 °F - 36.0 °F 35% 30.04 in 10.0 mi ESE 5.8 mph - N/A   Clear
6:53 PM 60.1 °F - 37.0 °F 42% 30.05 in 10.0 mi ESE 5.8 mph - N/A   Clear
7:53 PM 59.0 °F - 36.0 °F 42% 30.05 in 10.0 mi SE 8.1 mph - N/A   Clear
8:53 PM 57.0 °F - 36.0 °F 45% 30.04 in 10.0 mi ESE 6.9 mph - N/A   Clear
9:53 PM 54.0 °F - 35.1 °F 49% 30.05 in 10.0 mi ESE 5.8 mph - N/A   Clear
10:53 PM 52.0 °F - 35.1 °F 53% 30.04 in 10.0 mi ESE 4.6 mph - N/A   Clear
11:53 PM 53.1 °F - 35.1 °F 50% 30.02 in 10.0 mi ESE 6.9 mph - N/A   Clear